[[{"header":{"parameterUnit":"m.s-1","parameterCategory":2,"la1":30.2991,"la2":30.254,"lo1":-89.0895,"lo2":-89.0444,"dy":0.0017,"dx":0.0017,"nx":28,"ny":28,"refTime":"2023-09-05T21:00:00:Z","depth":"0","parameterNumber":2,"parameterNumberName":"U-component_of_CURRENTS"},"data":[0,0,0,0,0,0,0,0,0,0,0,0,0,0,0,0,0,0,0,0,0,0,0,0,0,0,0,0,0,0,0,0,0,0,0,0,0,0,0,0,0,0,0,0,0,0,0,0,0,0,0,0,0,0,0,0,0,0,-0.2538,-0.2539,0,-0.2572,-0.2572,-0.2572,-0.2523,-0.2521,-0.252,-0.2519,-0.2483,-0.2483,-0.2483,0,0,0,0,0,0,0,0,0,0,0,0,0,-0.2391,-0.2394,-0.2538,-0.2539,-0.254,-0.2572,-0.2572,-0.2572,-0.2523,-0.2521,-0.252,-0.2518,-0.2483,-0.2483,-0.2483,0,0,0,0,0,0,0,0,0,0,0,0,0,-0.2438,-0.2395,-0.2538,-0.2523,-0.2522,-0.2572,-0.2572,-0.2572,-0.2523,-0.2521,-0.2519,-0.2518,-0.2483,-0.2483,-0.2483,-0.2524,0,0,-0.2484,-0.2484,0,0,0,0,0,0,0,0,-0.2436,-0.2443,-0.2524,-0.2524,-0.2523,-0.2546,-0.2508,-0.2554,-0.2524,-0.2517,-0.2519,-0.2517,-0.2502,-0.2501,-0.2505,-0.2522,-0.252,-0.2484,-0.2485,-0.2485,-0.2485,0,0,0,0,0,0,0,-0.2433,-0.2441,-0.2546,-0.2525,-0.2525,-0.2502,-0.2506,-0.2516,-0.2515,-0.2518,-0.2516,-0.2528,-0.25,-0.2505,-0.2504,-0.252,-0.2484,-0.2485,-0.2485,-0.2485,-0.2547,-0.2548,0,0,0,0,0,0,-0.2444,-0.2439,-0.2545,-0.2548,-0.248,-0.2507,-0.2511,-0.2536,-0.2516,-0.2513,-0.253,-0.2526,-0.2505,-0.2503,-0.2502,-0.2521,-0.2485,-0.2485,-0.2485,-0.2546,-0.2547,-0.2549,0,0,0,0,0,0,-0.2441,-0.2453,-0.2544,-0.2497,-0.2507,-0.2512,-0.254,-0.2538,-0.2541,-0.2527,-0.2521,-0.2535,-0.2504,-0.2502,-0.2511,-0.252,-0.2485,-0.2485,-0.2544,-0.2546,-0.2548,-0.2577,0,0,0,0,0,0,-0.2437,-0.2452,-0.2473,-0.2498,-0.2511,-0.2579,-0.2542,-0.254,-0.2555,-0.2549,-0.253,-0.2525,-0.2502,-0.2511,-0.2512,-0.252,-0.2486,-0.2542,-0.2545,-0.2547,-0.2574,-0.258,-0.2585,0,0,0,0,0,-0.2431,-0.2475,-0.2474,-0.2487,-0.254,-0.2581,-0.2585,-0.2577,-0.2557,-0.2569,-0.2551,-0.2525,-0.2528,-0.2513,-0.2513,-0.2522,-0.2541,-0.2544,-0.2547,-0.2572,-0.2579,-0.2585,0,0,0,0,0,0,-0.243,-0.2476,-0.2475,-0.2532,-0.2556,-0.2575,-0.2593,-0.2587,-0.2586,-0.2574,-0.2547,-0.2542,-0.2552,-0.2545,-0.2529,-0.2551,-0.253,-0.2533,-0.2549,-0.2555,-0.256,-0.2549,-0.2486,0,0,0,0,0,-0.2442,-0.2479,-0.2515,-0.2558,-0.2574,-0.2583,-0.2598,-0.2595,-0.2601,-0.2597,-0.2583,-0.2572,-0.257,-0.2567,-0.2566,-0.2586,-0.2568,-0.2593,-0.2598,-0.2603,-0.2596,-0.2599,-0.2603,-0.256,-0.256,-0.256,0,0,-0.2454,-0.2484,-0.2505,-0.2559,-0.2574,-0.2596,-0.2586,-0.2617,-0.2623,-0.2596,-0.2597,-0.2592,-0.2582,-0.2592,-0.2596,-0.2584,-0.2605,-0.2607,-0.261,-0.2601,-0.2602,-0.2606,-0.261,-0.2562,-0.2561,-0.2561,0,0,-0.248,-0.2524,-0.2549,-0.2574,-0.2607,-0.2618,-0.263,-0.2651,-0.2647,-0.2663,-0.2637,-0.2641,-0.2644,-0.2632,-0.2627,-0.2669,-0.2634,-0.2672,-0.2686,-0.2689,-0.2692,-0.2694,-0.2665,-0.2664,-0.2673,-0.2673,-0.2673,0,-0.2492,-0.2523,-0.2563,-0.2587,-0.2604,-0.2627,-0.2643,-0.2659,-0.2674,-0.2676,-0.2665,-0.2668,-0.2659,-0.2665,-0.2671,-0.2678,-0.2664,-0.2658,-0.2693,-0.2695,-0.2697,-0.2667,-0.2666,-0.2675,-0.2675,-0.2674,-0.2674,0,-0.2514,-0.2544,-0.2567,-0.2597,-0.2627,-0.2653,-0.2681,-0.27,-0.2701,-0.2705,-0.2717,-0.2712,-0.2707,-0.2713,-0.27,-0.2714,-0.2693,-0.2699,-0.2671,-0.2703,-0.2669,-0.2668,-0.2677,-0.2677,-0.2676,-0.2676,0,0,-0.2514,-0.257,-0.2571,-0.258,-0.263,-0.2655,-0.2685,-0.2712,-0.2726,-0.2738,-0.2747,-0.2749,-0.2745,-0.274,-0.2733,-0.2735,-0.2732,-0.2722,-0.2721,-0.2681,-0.2715,-0.264,-0.263,-0.2745,-0.2745,-0.2746,-0.2681,0,-0.2506,-0.2536,-0.2572,-0.2598,-0.2611,-0.2657,-0.2687,-0.2718,-0.2739,-0.2761,-0.2764,-0.2772,-0.2757,-0.2755,-0.2757,-0.2747,-0.2732,-0.2748,-0.27,-0.2698,-0.2618,-0.2628,-0.252,-0.2449,-0.2679,-0.2679,-0.2679,0,-0.2479,-0.2509,-0.2526,-0.2584,-0.2598,-0.2619,-0.2665,-0.2698,-0.2747,-0.2768,-0.2782,-0.2789,-0.2792,-0.2781,-0.2759,-0.277,-0.2737,-0.2724,-0.2722,-0.2638,-0.262,-0.2458,-0.2437,-0.2419,-0.2676,-0.2676,-0.2676,0,-0.2403,-0.2465,-0.2472,-0.2492,-0.257,-0.2583,-0.2621,-0.268,-0.271,-0.2761,-0.2781,-0.2799,-0.2792,-0.2781,-0.2745,-0.2755,-0.2716,-0.2727,-0.2621,-0.2614,-0.2504,-0.2487,-0.2447,-0.2699,-0.2699,-0.2699,-0.27,0,-0.2354,-0.2358,-0.2434,-0.2438,-0.2465,-0.2532,-0.2559,-0.2614,-0.2679,-0.2707,-0.2763,-0.2773,-0.2793,-0.2775,-0.275,-0.2668,-0.2711,-0.2611,-0.2595,-0.2511,-0.2496,-0.2461,-0.2483,-0.2697,-0.2698,-0.2698,-0.2698,0,-0.2247,-0.2297,-0.2315,-0.2396,-0.242,-0.2431,-0.2516,-0.254,-0.2617,-0.2653,-0.2668,-0.274,-0.2718,-0.2715,-0.2689,-0.2647,-0.2549,-0.2555,-0.2438,-0.2408,-0.2293,-0.2321,-0.2251,-0.2191,-0.243,-0.2428,-0.2426,0,-0.2184,-0.218,-0.2263,-0.2272,-0.23,-0.2337,-0.2368,-0.2482,-0.2515,-0.2616,-0.2623,-0.2639,-0.2617,-0.2557,-0.2503,-0.2429,-0.244,-0.2292,-0.2293,-0.2259,-0.2279,-0.2304,-0.2261,-0.2154,-0.215,-0.2147,-0.2145,0,-0.2067,-0.2097,-0.2118,-0.2151,-0.2179,-0.2221,-0.2271,-0.2301,-0.2426,-0.246,-0.2491,-0.2485,-0.2447,-0.2341,-0.2267,-0.2215,-0.2236,-0.2221,-0.2225,-0.2085,-0.207,-0.2012,-0.2216,-0.2116,-0.2119,-0.2121,-0.2122,-0.2124,-0.196,-0.1956,-0.1989,-0.2004,-0.2046,-0.207,-0.2052,-0.2127,-0.2163,-0.2187,-0.2285,-0.2236,-0.222,-0.21,-0.2054,-0.1942,-0.2005,-0.1892,-0.1932,-0.1964,-0.1893,-0.2016,-0.1882,-0.1884,-0.1885,-0.1886,-0.1887,0,-0.1817,-0.1829,-0.1839,-0.1857,-0.1841,-0.1917,-0.1959,-0.1918,-0.19,-0.1967,-0.1957,-0.1946,-0.1849,-0.185,-0.1767,-0.1689,-0.1661,-0.1658,-0.1678,-0.165,-0.1776,-0.1751,-0.1536,-0.1536,-0.1536,-0.1536,-0.1536,-0.1536,-0.1739,-0.1698,-0.1713,-0.1637,-0.1647,-0.1586,-0.1576,-0.155,-0.1564,-0.1526,-0.1541,-0.1594,-0.1636,-0.1763,-0.1668,-0.1586,-0.1566,-0.1501,-0.1545,-0.1657,-0.1683,-0.1707,-0.1689,-0.1464,-0.1464,-0.1351,-0.135,-0.135]},{"header":{"parameterUnit":"m.s-1","parameterCategory":2,"la1":30.2991,"la2":30.254,"lo1":-89.0895,"lo2":-89.0444,"dy":0.0017,"dx":0.0017,"nx":28,"ny":28,"refTime":"2023-09-05T21:00:00:Z","depth":"0","parameterNumber":3,"parameterNumberName":"V-component_of_CURRENTS"},"data":[0,0,0,0,0,0,0,0,0,0,0,0,0,0,0,0,0,0,0,0,0,0,0,0,0,0,0,0,0,0,0,0,0,0,0,0,0,0,0,0,0,0,0,0,0,0,0,0,0,0,0,0,0,0,0,0,0,0,-0.013,-0.013,0,-0.0056,-0.0055,-0.0054,-0.0001,-0.0001,-0.0,0.0,0.0137,0.014,0.0143,0,0,0,0,0,0,0,0,0,0,0,0,0,-0.0184,-0.0184,-0.0131,-0.013,-0.0129,-0.0056,-0.0055,-0.0054,-0.0001,-0.0001,-0.0,0.0,0.0135,0.0139,0.0143,0,0,0,0,0,0,0,0,0,0,0,0,0,-0.014,-0.0183,-0.0131,-0.0094,-0.009,-0.0056,-0.0055,-0.0054,-0.0001,-0.0001,-0.0,0.0,0.0134,0.0139,0.0144,0.0163,0,0,0.0159,0.0161,0,0,0,0,0,0,0,0,-0.0143,-0.0138,-0.01,-0.0097,-0.0092,-0.0038,-0.0024,0.0022,-0.0001,-0.0034,0.0,0.0001,0.0083,0.0092,0.0105,0.017,0.0175,0.0159,0.0162,0.0164,0.0166,0,0,0,0,0,0,0,-0.0146,-0.0141,-0.01,-0.01,-0.0094,-0.0067,-0.006,-0.0015,0.0022,-0.0031,-0.0028,-0.002,0.0086,0.01,0.0109,0.0177,0.0159,0.0164,0.0167,0.0169,0.0281,0.0281,0,0,0,0,0,0,-0.0159,-0.0144,-0.0103,-0.0098,-0.0117,-0.0066,-0.0059,-0.0055,0.002,0.0032,-0.0021,-0.0018,0.0091,0.0103,0.0114,0.015,0.0164,0.0169,0.0172,0.0281,0.0281,0.0281,0,0,0,0,0,0,-0.016,-0.0156,-0.0106,-0.0119,-0.0111,-0.0066,-0.0062,-0.0054,-0.0039,0.0027,0.004,-0.0015,0.0092,0.0107,0.0151,0.0155,0.0171,0.0176,0.0281,0.0281,0.0281,0.0217,0,0,0,0,0,0,-0.0162,-0.0157,-0.0163,-0.0121,-0.0111,-0.0093,-0.0063,-0.0053,-0.0036,-0.0032,0.0037,0.005,0.0094,0.0143,0.0156,0.0163,0.018,0.0281,0.0281,0.0281,0.0219,0.0215,0.0211,0,0,0,0,0,-0.0165,-0.0179,-0.0164,-0.0159,-0.0119,-0.0094,-0.0086,-0.0052,-0.0037,-0.0035,0.0012,0.0048,0.0153,0.0147,0.0162,0.017,0.0281,0.0281,0.0281,0.0221,0.0216,0.0211,0,0,0,0,0,0,-0.0213,-0.0173,-0.0156,-0.016,-0.0131,-0.0085,-0.0084,-0.0058,-0.002,-0.0015,0.0049,0.0065,0.0104,0.0145,0.0137,0.0203,0.0223,0.0226,0.0172,0.0168,0.0164,0.0153,0.0184,0,0,0,0,0,-0.0225,-0.0222,-0.018,-0.0185,-0.0172,-0.0129,-0.0116,-0.009,-0.005,-0.0034,0.0015,0.0069,0.0116,0.0146,0.019,0.0227,0.0273,0.0243,0.0238,0.0235,0.0236,0.0304,0.0306,0.0281,0.0281,0.0281,0,0,-0.0248,-0.0225,-0.0225,-0.0195,-0.017,-0.0156,-0.012,-0.0105,-0.0087,-0.0024,0.0009,0.0054,0.012,0.016,0.0182,0.0196,0.0265,0.0235,0.0231,0.0235,0.0304,0.0307,0.0309,0.0281,0.0281,0.0281,0,0,-0.0285,-0.027,-0.0273,-0.0251,-0.0216,-0.0186,-0.0184,-0.0137,-0.0112,-0.0076,-0.0026,0.002,0.0089,0.014,0.0175,0.0177,0.0236,0.019,0.017,0.0235,0.0238,0.0241,0.0294,0.0302,0.0194,0.0194,0.0194,0,-0.0316,-0.0309,-0.0273,-0.0266,-0.0254,-0.0202,-0.0201,-0.0167,-0.0112,-0.009,-0.0075,0.0031,0.0083,0.0144,0.0144,0.0169,0.0211,0.018,0.023,0.0234,0.0238,0.0292,0.0302,0.0191,0.0191,0.0191,0.0191,0,-0.0344,-0.0339,-0.0343,-0.0313,-0.0295,-0.029,-0.0237,-0.0214,-0.0179,-0.0137,-0.0079,-0.0009,0.0056,0.0079,0.0115,0.0169,0.0189,0.021,0.0238,0.0236,0.0294,0.0305,0.0186,0.0187,0.0188,0.0189,0,0,-0.0415,-0.0371,-0.0374,-0.0367,-0.032,-0.0312,-0.0282,-0.0238,-0.0219,-0.0157,-0.012,-0.0039,0.0,0.0042,0.0096,0.0155,0.0215,0.0189,0.0194,0.0236,0.0353,0.0384,0.04,0.0244,0.0246,0.0247,0.0379,0,-0.0451,-0.0452,-0.0415,-0.0419,-0.0417,-0.0361,-0.034,-0.0293,-0.0242,-0.0193,-0.0107,-0.0055,-0.0012,0.0016,0.0083,0.0185,0.0244,0.0178,0.0355,0.036,0.0383,0.0414,0.0445,0.0567,0.039,0.0392,0.0394,0,-0.0486,-0.0486,-0.0491,-0.0468,-0.0463,-0.0453,-0.0414,-0.0387,-0.03,-0.0259,-0.0184,-0.0114,-0.0014,0.0015,0.0194,0.0149,0.0242,0.032,0.0327,0.0388,0.0413,0.0544,0.0595,0.0728,0.0412,0.0411,0.0409,0,-0.0549,-0.0539,-0.0546,-0.0539,-0.0502,-0.0496,-0.0478,-0.041,-0.0389,-0.0298,-0.0267,-0.014,-0.0074,0.0063,0.0225,0.0213,0.0421,0.0429,0.0544,0.0547,0.0626,0.0633,0.0825,0.055,0.055,0.0549,0.0549,0,-0.0594,-0.0603,-0.0579,-0.0585,-0.0609,-0.0559,-0.0561,-0.0521,-0.0457,-0.0425,-0.0309,-0.0248,-0.0059,0.0083,0.0224,0.0427,0.0428,0.0553,0.0591,0.0603,0.0606,0.0768,0.0814,0.0554,0.0553,0.0552,0.0551,0,-0.0645,-0.0624,-0.0642,-0.063,-0.0633,-0.0651,-0.0632,-0.0628,-0.0557,-0.0508,-0.0481,-0.0317,-0.0122,0.0072,0.0307,0.0426,0.0707,0.0679,0.0674,0.0709,0.0928,0.0967,0.1189,0.1282,0.0832,0.0833,0.0835,0,-0.0664,-0.0676,-0.0693,-0.0718,-0.0713,-0.0731,-0.0743,-0.069,-0.0674,-0.0542,-0.0518,-0.0326,-0.0166,0.0189,0.0436,0.0702,0.0798,0.0864,0.0849,0.0961,0.1034,0.1052,0.1115,0.093,0.0932,0.0933,0.0935,0,-0.0708,-0.0711,-0.0729,-0.0789,-0.0814,-0.0841,-0.0845,-0.0847,-0.0763,-0.0687,-0.054,-0.0397,-0.0047,0.0286,0.0612,0.0761,0.0968,0.0905,0.1041,0.1147,0.1163,0.1262,0.0808,0.095,0.0948,0.0947,0.0946,0.0946,-0.0741,-0.0775,-0.0803,-0.0856,-0.0895,-0.0929,-0.0937,-0.0904,-0.0853,-0.0694,-0.0562,-0.0299,0.0161,0.0642,0.0818,0.1162,0.1116,0.1253,0.1298,0.131,0.1388,0.0954,0.112,0.112,0.1119,0.1119,0.1119,0,-0.0778,-0.0813,-0.087,-0.0926,-0.0974,-0.0976,-0.0984,-0.0948,-0.0863,-0.0675,-0.0484,0.003,0.0482,0.0885,0.138,0.1554,0.159,0.1623,0.167,0.1721,0.137,0.1361,0.1563,0.1563,0.1563,0.1563,0.1563,0.1563,-0.0799,-0.0853,-0.0884,-0.0971,-0.1009,-0.1034,-0.1028,-0.0938,-0.08,-0.0467,-0.0161,0.0088,0.0641,0.1447,0.1892,0.1916,0.2073,0.2031,0.2126,0.1885,0.1853,0.1823,0.1829,0.2126,0.2126,0.247,0.2473,0.2475]}],[{"header":{"parameterUnit":"m.s-1","parameterCategory":2,"la1":30.2991,"la2":30.254,"lo1":-89.0895,"lo2":-89.0444,"dy":0.0017,"dx":0.0017,"nx":28,"ny":28,"refTime":"2023-09-05T21:00:00:Z","depth":"2","parameterNumber":2,"parameterNumberName":"U-component_of_CURRENTS"},"data":[0,0,0,0,0,0,0,0,0,0,0,0,0,0,0,0,0,0,0,0,0,0,0,0,0,0,0,0,0,0,0,0,0,0,0,0,0,0,0,0,0,0,0,0,0,0,0,0,0,0,0,0,0,0,0,0,0,0,-0.2239,-0.224,0,-0.2269,-0.2269,-0.2269,-0.2228,-0.2227,-0.2226,-0.2225,-0.2194,-0.2194,-0.2194,0,0,0,0,0,0,0,0,0,0,0,0,0,-0.2115,-0.2117,-0.2239,-0.224,-0.2241,-0.2269,-0.2269,-0.2269,-0.2228,-0.2227,-0.2226,-0.2225,-0.2194,-0.2194,-0.2194,0,0,0,0,0,0,0,0,0,0,0,0,0,-0.2155,-0.2118,-0.2239,-0.2227,-0.2227,-0.2269,-0.2269,-0.2269,-0.2229,-0.2227,-0.2226,-0.2224,-0.2194,-0.2194,-0.2194,-0.2226,0,0,-0.2195,-0.2195,0,0,0,0,0,0,0,0,-0.2153,-0.2159,-0.2228,-0.2228,-0.2228,-0.2247,-0.2214,-0.2253,-0.2229,-0.2223,-0.2225,-0.2223,-0.2211,-0.2209,-0.2212,-0.2225,-0.2224,-0.2195,-0.2195,-0.2195,-0.2195,0,0,0,0,0,0,0,-0.215,-0.2157,-0.2246,-0.2229,-0.2229,-0.221,-0.2214,-0.2221,-0.222,-0.2223,-0.2222,-0.2233,-0.2209,-0.2212,-0.2211,-0.2223,-0.2195,-0.2195,-0.2195,-0.2195,-0.2249,-0.2251,0,0,0,0,0,0,-0.216,-0.2155,-0.2245,-0.2247,-0.2191,-0.2214,-0.2218,-0.2239,-0.2221,-0.2219,-0.2234,-0.2231,-0.2213,-0.2211,-0.221,-0.2233,-0.2195,-0.2195,-0.2195,-0.2248,-0.225,-0.2251,0,0,0,0,0,0,-0.2157,-0.2168,-0.2244,-0.2205,-0.2214,-0.2219,-0.2242,-0.224,-0.2245,-0.2231,-0.2226,-0.2241,-0.2212,-0.221,-0.2221,-0.2232,-0.2195,-0.2196,-0.2247,-0.2249,-0.225,-0.2288,0,0,0,0,0,0,-0.2154,-0.2167,-0.2186,-0.2206,-0.2216,-0.2276,-0.2244,-0.2242,-0.2257,-0.2252,-0.2236,-0.2231,-0.221,-0.2221,-0.2221,-0.2231,-0.2196,-0.2245,-0.2247,-0.225,-0.2285,-0.2291,-0.2296,0,0,0,0,0,-0.2149,-0.2187,-0.2187,-0.2198,-0.2242,-0.2278,-0.2281,-0.2275,-0.2259,-0.2271,-0.2256,-0.2232,-0.2236,-0.2222,-0.2222,-0.2233,-0.2244,-0.2247,-0.225,-0.2282,-0.229,-0.2296,0,0,0,0,0,0,-0.2147,-0.2188,-0.2187,-0.2236,-0.2257,-0.2273,-0.2289,-0.2285,-0.2286,-0.2277,-0.2252,-0.2248,-0.226,-0.2251,-0.2236,-0.2258,-0.2235,-0.2238,-0.226,-0.2267,-0.2272,-0.2262,-0.2196,0,0,0,0,0,-0.2157,-0.2191,-0.2222,-0.2259,-0.2273,-0.2282,-0.2296,-0.2294,-0.23,-0.2298,-0.2286,-0.2277,-0.2275,-0.2274,-0.2272,-0.2291,-0.2271,-0.2298,-0.2304,-0.2308,-0.2302,-0.23,-0.2304,-0.2261,-0.2261,-0.2261,0,0,-0.2167,-0.2194,-0.2213,-0.226,-0.2273,-0.2295,-0.2285,-0.2314,-0.2322,-0.2296,-0.2302,-0.2298,-0.2286,-0.2298,-0.2303,-0.229,-0.231,-0.2312,-0.2316,-0.2307,-0.2304,-0.2307,-0.2311,-0.2263,-0.2263,-0.2262,0,0,-0.2189,-0.2227,-0.225,-0.2274,-0.2305,-0.2316,-0.2327,-0.2348,-0.2347,-0.2365,-0.2342,-0.2347,-0.2351,-0.2339,-0.2334,-0.2375,-0.2341,-0.2379,-0.2395,-0.2394,-0.2397,-0.2399,-0.2373,-0.2372,-0.238,-0.238,-0.238,0,-0.2194,-0.2227,-0.2263,-0.2286,-0.2303,-0.2325,-0.2342,-0.2357,-0.2374,-0.2378,-0.237,-0.2375,-0.2366,-0.2372,-0.2381,-0.2385,-0.2371,-0.2368,-0.2399,-0.2401,-0.2403,-0.2375,-0.2374,-0.2382,-0.2382,-0.2381,-0.2381,0,-0.2219,-0.2247,-0.2268,-0.2299,-0.2327,-0.2352,-0.2379,-0.2399,-0.2404,-0.241,-0.2426,-0.2421,-0.2417,-0.2424,-0.2411,-0.2424,-0.2405,-0.2406,-0.2378,-0.2409,-0.2378,-0.2377,-0.2385,-0.2384,-0.2383,-0.2383,0,0,-0.2209,-0.227,-0.2272,-0.2283,-0.2332,-0.2354,-0.2386,-0.2414,-0.2428,-0.2445,-0.2456,-0.2461,-0.2458,-0.2453,-0.2446,-0.2447,-0.2447,-0.2433,-0.2432,-0.2397,-0.2426,-0.235,-0.234,-0.2455,-0.2455,-0.2456,-0.2396,0,-0.2204,-0.2237,-0.2276,-0.2303,-0.2318,-0.2361,-0.239,-0.2422,-0.2444,-0.2467,-0.2472,-0.2482,-0.2471,-0.2471,-0.2472,-0.2457,-0.2446,-0.2461,-0.2408,-0.2406,-0.2327,-0.2337,-0.217,-0.2098,-0.2394,-0.2394,-0.2394,0,-0.2186,-0.2216,-0.2238,-0.2293,-0.2307,-0.2328,-0.2374,-0.2406,-0.2453,-0.2474,-0.2491,-0.2499,-0.2502,-0.2494,-0.247,-0.2481,-0.2451,-0.2437,-0.2435,-0.2347,-0.2327,-0.2117,-0.2084,-0.239,-0.2391,-0.2391,-0.2391,0,-0.2118,-0.218,-0.2192,-0.2211,-0.2285,-0.23,-0.2337,-0.2392,-0.242,-0.2472,-0.2491,-0.2508,-0.2503,-0.249,-0.2456,-0.2465,-0.2424,-0.2432,-0.2331,-0.2324,-0.216,-0.2139,-0.2407,-0.2407,-0.2407,-0.2407,-0.2408,0,-0.2076,-0.2083,-0.2159,-0.2165,-0.2193,-0.2257,-0.2283,-0.2336,-0.2396,-0.2421,-0.2477,-0.2485,-0.2504,-0.2485,-0.2459,-0.2378,-0.242,-0.2322,-0.2305,-0.2169,-0.215,-0.2391,-0.239,-0.2405,-0.2406,-0.2406,-0.2406,0,-0.1981,-0.2032,-0.2053,-0.213,-0.2154,-0.2168,-0.2246,-0.2267,-0.2341,-0.2373,-0.2389,-0.2455,-0.2431,-0.2429,-0.24,-0.2358,-0.2309,-0.2267,-0.2094,-0.2057,-0.2207,-0.2209,-0.2148,-0.2145,-0.2142,-0.214,-0.2138,0,-0.1929,-0.1929,-0.2008,-0.2018,-0.2046,-0.2084,-0.2113,-0.2217,-0.2244,-0.2337,-0.2341,-0.2357,-0.2329,-0.2266,-0.2207,-0.2132,-0.2215,-0.1944,-0.1933,-0.2192,-0.2181,-0.2187,-0.2193,-0.1726,-0.1721,-0.1717,-0.1714,0,-0.1827,-0.1856,-0.1877,-0.191,-0.1936,-0.1974,-0.202,-0.2041,-0.2154,-0.2181,-0.2202,-0.2191,-0.215,-0.2006,-0.1934,-0.1876,-0.1949,-0.1856,-0.2162,-0.1827,-0.1792,-0.1783,-0.1802,-0.1677,-0.168,-0.1683,-0.1685,-0.1687,-0.1734,-0.1732,-0.1762,-0.1778,-0.1817,-0.1832,-0.1808,-0.1868,-0.189,-0.1896,-0.1987,-0.1909,-0.1917,-0.1707,-0.1628,-0.1569,-0.1698,-0.163,-0.1643,-0.1661,-0.1632,-0.1595,-0.1436,-0.1438,-0.144,-0.1442,-0.1443,0,-0.1609,-0.1618,-0.1627,-0.1642,-0.1625,-0.1694,-0.1719,-0.1668,-0.1631,-0.1669,-0.1645,-0.1483,-0.1391,-0.1404,-0.1251,-0.1231,-0.1229,-0.1187,-0.1187,-0.1224,-0.1256,-0.1209,-0.0899,-0.0897,-0.0896,-0.0895,0,0,-0.154,-0.1502,-0.1513,-0.1438,-0.1445,-0.1379,-0.1359,-0.1313,-0.1301,-0.122,-0.1181,-0.1276,-0.1335,-0.111,-0.1068,-0.0955,-0.1077,-0.0907,-0.1339,-0.1373,-0.1403,-0.1502,-0.1468,0,0,0,0,0]},{"header":{"parameterUnit":"m.s-1","parameterCategory":2,"la1":30.2991,"la2":30.254,"lo1":-89.0895,"lo2":-89.0444,"dy":0.0017,"dx":0.0017,"nx":28,"ny":28,"refTime":"2023-09-05T21:00:00:Z","depth":"2","parameterNumber":3,"parameterNumberName":"V-component_of_CURRENTS"},"data":[0,0,0,0,0,0,0,0,0,0,0,0,0,0,0,0,0,0,0,0,0,0,0,0,0,0,0,0,0,0,0,0,0,0,0,0,0,0,0,0,0,0,0,0,0,0,0,0,0,0,0,0,0,0,0,0,0,0,-0.0163,-0.0163,0,-0.0096,-0.0095,-0.0094,-0.0047,-0.0047,-0.0046,-0.0046,0.0076,0.0079,0.0082,0,0,0,0,0,0,0,0,0,0,0,0,0,-0.0211,-0.021,-0.0163,-0.0163,-0.0162,-0.0096,-0.0095,-0.0094,-0.0047,-0.0047,-0.0046,-0.0046,0.0075,0.0079,0.0082,0,0,0,0,0,0,0,0,0,0,0,0,0,-0.0171,-0.021,-0.0164,-0.0131,-0.0127,-0.0096,-0.0095,-0.0094,-0.0047,-0.0047,-0.0046,-0.0046,0.0074,0.0079,0.0083,0.0101,0,0,0.0097,0.0099,0,0,0,0,0,0,0,0,-0.0173,-0.0169,-0.0136,-0.0133,-0.0129,-0.008,-0.0067,-0.0026,-0.0047,-0.0077,-0.0046,-0.0046,0.0028,0.0037,0.0048,0.0107,0.0112,0.0097,0.01,0.0102,0.0103,0,0,0,0,0,0,0,-0.0176,-0.0172,-0.0136,-0.0136,-0.0131,-0.0106,-0.01,-0.0059,-0.0026,-0.0074,-0.0071,-0.0065,0.0031,0.0044,0.0052,0.0114,0.0097,0.0101,0.0104,0.0105,0.0208,0.0208,0,0,0,0,0,0,-0.0188,-0.0175,-0.0138,-0.0134,-0.0151,-0.0106,-0.0099,-0.0096,-0.0028,-0.0018,-0.0065,-0.0063,0.0036,0.0047,0.0056,0.0089,0.0102,0.0106,0.0108,0.0208,0.0208,0.0208,0,0,0,0,0,0,-0.019,-0.0186,-0.0141,-0.0153,-0.0146,-0.0106,-0.0102,-0.0095,-0.0081,-0.0021,-0.001,-0.006,0.0037,0.005,0.009,0.0094,0.0108,0.0112,0.0208,0.0208,0.0208,0.015,0,0,0,0,0,0,-0.0192,-0.0187,-0.0192,-0.0154,-0.0145,-0.0129,-0.0102,-0.0094,-0.0078,-0.0075,-0.0013,-0.0001,0.0038,0.0083,0.0095,0.01,0.0115,0.0207,0.0208,0.0208,0.0152,0.0148,0.0145,0,0,0,0,0,-0.0193,-0.0206,-0.0193,-0.0189,-0.0153,-0.013,-0.0123,-0.0092,-0.0079,-0.0078,-0.0034,-0.0003,0.0092,0.0087,0.01,0.0107,0.0207,0.0208,0.0208,0.0153,0.0149,0.0145,0,0,0,0,0,0,-0.0236,-0.0201,-0.0186,-0.019,-0.0164,-0.0122,-0.0122,-0.0098,-0.0064,-0.0059,-0.0002,0.0013,0.0048,0.0085,0.0077,0.0137,0.0155,0.0158,0.0109,0.0106,0.0102,0.0091,0.0119,0,0,0,0,0,-0.0247,-0.0246,-0.0207,-0.0212,-0.0201,-0.0162,-0.015,-0.0127,-0.0091,-0.0076,-0.0032,0.0016,0.0059,0.0086,0.0125,0.016,0.0199,0.0173,0.017,0.0166,0.0167,0.0224,0.0226,0.0208,0.0208,0.0208,0,0,-0.0268,-0.0248,-0.0249,-0.0221,-0.0199,-0.0186,-0.0154,-0.014,-0.0124,-0.0067,-0.0037,0.0003,0.0063,0.0098,0.0118,0.0131,0.0191,0.0167,0.0163,0.0166,0.0225,0.0226,0.0228,0.0208,0.0208,0.0208,0,0,-0.0302,-0.0288,-0.0292,-0.0272,-0.0241,-0.0214,-0.0212,-0.017,-0.0147,-0.0114,-0.0069,-0.0028,0.0035,0.008,0.0112,0.0114,0.0165,0.0126,0.0108,0.0163,0.0165,0.0167,0.0212,0.0218,0.013,0.013,0.013,0,-0.0329,-0.0324,-0.0292,-0.0286,-0.0275,-0.0229,-0.0228,-0.0197,-0.0147,-0.0127,-0.0113,-0.0018,0.0029,0.0084,0.0084,0.0107,0.0142,0.0117,0.0158,0.0161,0.0164,0.021,0.0218,0.0127,0.0127,0.0128,0.0128,0,-0.0356,-0.0352,-0.0356,-0.033,-0.0314,-0.0309,-0.0261,-0.0241,-0.0209,-0.0171,-0.0119,-0.0055,0.0003,0.0025,0.0057,0.0104,0.0121,0.0141,0.0166,0.0163,0.0211,0.022,0.0123,0.0124,0.0125,0.0126,0,0,-0.0422,-0.0382,-0.0385,-0.0379,-0.0337,-0.0329,-0.0303,-0.0264,-0.0248,-0.0191,-0.016,-0.0085,-0.0049,-0.0012,0.0038,0.0089,0.0139,0.012,0.0124,0.0158,0.0255,0.0277,0.029,0.0165,0.0166,0.0168,0.0277,0,-0.0455,-0.0457,-0.0423,-0.0427,-0.0426,-0.0376,-0.0358,-0.0316,-0.027,-0.023,-0.015,-0.0106,-0.0061,-0.0037,0.0022,0.0111,0.0163,0.0107,0.0259,0.0263,0.0278,0.0301,0.0265,0.036,0.0286,0.0288,0.0289,0,-0.0489,-0.0488,-0.0494,-0.0474,-0.0469,-0.0461,-0.0428,-0.0404,-0.0329,-0.0293,-0.0226,-0.0164,-0.0075,-0.0046,0.0112,0.0074,0.0156,0.0225,0.0232,0.028,0.0303,0.0354,0.0381,0.0306,0.0304,0.0303,0.0302,0,-0.0547,-0.0538,-0.0546,-0.0539,-0.0506,-0.0501,-0.0486,-0.0427,-0.041,-0.0332,-0.0307,-0.0193,-0.0136,-0.0014,0.0132,0.0124,0.0303,0.0312,0.041,0.0412,0.0426,0.0427,0.0418,0.0418,0.0417,0.0417,0.0417,0,-0.0589,-0.0598,-0.0576,-0.0582,-0.0604,-0.0559,-0.0564,-0.0529,-0.0476,-0.0451,-0.0347,-0.0295,-0.0126,-0.0001,0.0126,0.0304,0.0305,0.0415,0.0448,0.0404,0.0402,0.039,0.0385,0.0421,0.042,0.0419,0.0419,0,-0.0637,-0.0618,-0.0635,-0.0624,-0.0627,-0.0644,-0.0631,-0.0629,-0.0568,-0.0531,-0.0509,-0.0365,-0.0194,-0.0019,0.0188,0.0295,0.0459,0.0516,0.0449,0.0472,0.0529,0.0521,0.0639,0.0641,0.0642,0.0643,0.0644,0,-0.0655,-0.0666,-0.0682,-0.0704,-0.07,-0.0718,-0.073,-0.0686,-0.0675,-0.0565,-0.0548,-0.0382,-0.0245,0.0067,0.028,0.0513,0.051,0.06,0.0581,0.0535,0.0555,0.0544,0.0533,0.0576,0.0577,0.0577,0.0577,0,-0.0698,-0.0699,-0.0716,-0.077,-0.0795,-0.0821,-0.0827,-0.0831,-0.0761,-0.07,-0.0579,-0.0458,-0.0159,0.0099,0.0385,0.0508,0.0561,0.0615,0.0605,0.0519,0.0484,0.0501,0.0491,0.058,0.058,0.058,0.058,0.0579,-0.073,-0.076,-0.0785,-0.0833,-0.0871,-0.0904,-0.0913,-0.0887,-0.0849,-0.072,-0.0609,-0.0393,-0.0155,0.0264,0.046,0.0629,0.0628,0.0667,0.0663,0.0659,0.0626,0.0595,0.0705,0.0706,0.0706,0.0706,0.0707,0,-0.0766,-0.0796,-0.0848,-0.0899,-0.0945,-0.0949,-0.0959,-0.0929,-0.0861,-0.071,-0.0554,-0.028,0.0008,0.0251,0.0532,0.0699,0.0672,0.071,0.0646,0.0642,0.0639,0.0602,0.0677,0.0678,0.0678,0.0679,0,0,-0.0788,-0.0836,-0.0862,-0.0944,-0.098,-0.1009,-0.1005,-0.0929,-0.0816,-0.0644,-0.0474,-0.0253,0.0032,0.0227,0.0429,0.0569,0.0558,0.0568,0.0573,0.047,0.0465,0.0595,0.0532,0,0,0,0,0]}],[{"header":{"parameterUnit":"m.s-1","parameterCategory":2,"la1":30.2991,"la2":30.254,"lo1":-89.0895,"lo2":-89.0444,"dy":0.0017,"dx":0.0017,"nx":28,"ny":28,"refTime":"2023-09-05T21:00:00:Z","depth":"4","parameterNumber":2,"parameterNumberName":"U-component_of_CURRENTS"},"data":[0,0,0,0,0,0,0,0,0,0,0,0,0,0,0,0,0,0,0,0,0,0,0,0,0,0,0,0,0,0,0,0,0,0,0,0,0,0,0,0,0,0,0,0,0,0,0,0,0,0,0,0,0,0,0,0,0,0,-0.1596,-0.1597,0,-0.165,-0.165,-0.165,-0.1667,-0.1667,-0.1667,-0.1667,-0.1699,-0.1699,-0.17,0,0,0,0,0,0,0,0,0,0,0,0,0,-0.149,-0.1492,-0.1596,-0.1597,-0.1598,-0.165,-0.165,-0.165,-0.1667,-0.1667,-0.1667,-0.1667,-0.1698,-0.1699,-0.17,0,0,0,0,0,0,0,0,0,0,0,0,0,-0.1536,-0.1492,-0.1596,-0.1615,-0.1617,-0.165,-0.165,-0.1651,-0.1667,-0.1667,-0.1667,-0.1667,-0.1698,-0.1699,-0.17,-0.1706,0,0,-0.1704,-0.1704,0,0,0,0,0,0,0,0,-0.1533,-0.1539,-0.1611,-0.1614,-0.1617,-0.1655,-0.1625,-0.1669,-0.1667,-0.1645,-0.1667,-0.1668,-0.1684,-0.1686,-0.1692,-0.1707,-0.1708,-0.1704,-0.1705,-0.1705,-0.1705,0,0,0,0,0,0,0,-0.153,-0.1537,-0.1614,-0.1612,-0.1616,-0.1615,-0.1622,-0.1633,-0.166,-0.1647,-0.1649,-0.166,-0.1685,-0.1691,-0.1693,-0.1709,-0.1704,-0.1705,-0.1706,-0.1706,-0.1787,-0.1789,0,0,0,0,0,0,-0.1532,-0.1534,-0.1612,-0.1616,-0.1578,-0.1617,-0.1624,-0.164,-0.1661,-0.1665,-0.166,-0.1661,-0.1689,-0.1691,-0.1694,-0.1756,-0.1705,-0.1706,-0.1707,-0.1786,-0.1788,-0.1789,0,0,0,0,0,0,-0.1529,-0.1538,-0.161,-0.1578,-0.1588,-0.162,-0.1636,-0.1641,-0.1674,-0.1672,-0.1675,-0.1693,-0.1689,-0.1692,-0.173,-0.1755,-0.1707,-0.1708,-0.1784,-0.1786,-0.1788,-0.1845,0,0,0,0,0,0,-0.1526,-0.1537,-0.1563,-0.1579,-0.159,-0.1649,-0.1637,-0.1642,-0.1681,-0.1683,-0.17,-0.1702,-0.1689,-0.1729,-0.1732,-0.1756,-0.1709,-0.1782,-0.1785,-0.1788,-0.1841,-0.1848,-0.1855,0,0,0,0,0,-0.1522,-0.1555,-0.1564,-0.1574,-0.162,-0.1651,-0.1657,-0.1676,-0.1683,-0.1705,-0.1718,-0.1703,-0.1748,-0.1731,-0.1734,-0.1759,-0.1781,-0.1784,-0.1787,-0.1838,-0.1847,-0.1855,0,0,0,0,0,0,-0.1527,-0.1561,-0.157,-0.1614,-0.164,-0.1656,-0.1686,-0.1696,-0.1725,-0.1734,-0.1725,-0.1728,-0.1768,-0.1761,-0.1743,-0.1791,-0.176,-0.1764,-0.1798,-0.1806,-0.1813,-0.1801,-0.171,0,0,0,0,0,-0.1539,-0.1573,-0.1599,-0.1637,-0.1654,-0.1675,-0.1696,-0.171,-0.1731,-0.1745,-0.1757,-0.1769,-0.1779,-0.1793,-0.1801,-0.1833,-0.1809,-0.185,-0.1857,-0.1863,-0.1856,-0.185,-0.1855,-0.18,-0.18,-0.18,0,0,-0.1552,-0.1576,-0.1596,-0.1641,-0.1662,-0.1688,-0.1688,-0.1732,-0.1754,-0.1744,-0.179,-0.1798,-0.1794,-0.1826,-0.1843,-0.1827,-0.1868,-0.1867,-0.1872,-0.1861,-0.1854,-0.1859,-0.1864,-0.1802,-0.1802,-0.1801,0,0,-0.1575,-0.1616,-0.1642,-0.1668,-0.1711,-0.1725,-0.1744,-0.1778,-0.18,-0.1843,-0.1836,-0.1862,-0.1889,-0.1885,-0.1884,-0.1938,-0.1905,-0.1948,-0.1974,-0.197,-0.1974,-0.1977,-0.1954,-0.1955,-0.1952,-0.1952,-0.1952,0,-0.1588,-0.1623,-0.1657,-0.1684,-0.1708,-0.1743,-0.1769,-0.1797,-0.184,-0.1858,-0.1867,-0.1906,-0.191,-0.1927,-0.1946,-0.1952,-0.1938,-0.1942,-0.1977,-0.198,-0.1982,-0.1958,-0.1958,-0.1955,-0.1954,-0.1954,-0.1954,0,-0.1614,-0.1653,-0.1675,-0.1715,-0.1749,-0.1784,-0.182,-0.1861,-0.1894,-0.1912,-0.1957,-0.1968,-0.1982,-0.1996,-0.1988,-0.2011,-0.1992,-0.1986,-0.1952,-0.1991,-0.1963,-0.1962,-0.1959,-0.1958,-0.1957,-0.1956,0,0,-0.1598,-0.1675,-0.1683,-0.1707,-0.1769,-0.1794,-0.1846,-0.1889,-0.1919,-0.1968,-0.1997,-0.2027,-0.2037,-0.2037,-0.2037,-0.204,-0.205,-0.2027,-0.2025,-0.1996,-0.203,-0.1901,-0.1887,-0.2054,-0.2054,-0.2054,-0.2004,0,-0.1602,-0.1651,-0.1694,-0.1744,-0.1768,-0.1823,-0.1864,-0.1913,-0.1956,-0.1997,-0.202,-0.2051,-0.2051,-0.2066,-0.2071,-0.2056,-0.205,-0.2063,-0.2002,-0.2,-0.1874,-0.1882,-0.2055,-0.2002,-0.2002,-0.2002,-0.2002,0,-0.1593,-0.1631,-0.1678,-0.175,-0.1768,-0.1807,-0.1875,-0.1919,-0.1983,-0.2019,-0.2056,-0.2074,-0.2093,-0.2089,-0.2074,-0.2085,-0.2061,-0.2046,-0.2043,-0.1898,-0.1868,-0.1956,-0.1999,-0.1999,-0.1999,-0.2,-0.2,0,-0.1531,-0.1613,-0.1651,-0.1676,-0.1765,-0.1801,-0.1851,-0.1922,-0.1958,-0.2031,-0.2056,-0.2089,-0.2099,-0.2089,-0.2063,-0.2073,-0.2032,-0.2038,-0.1894,-0.1885,-0.1992,-0.1989,-0.2016,-0.2016,-0.2017,-0.2017,-0.2017,0,-0.1491,-0.1524,-0.1631,-0.1648,-0.1701,-0.1775,-0.1827,-0.1889,-0.1959,-0.1984,-0.2059,-0.2062,-0.2102,-0.2085,-0.2063,-0.196,-0.2027,-0.1884,-0.1859,-0.2018,-0.2018,-0.199,-0.1988,-0.2015,-0.2015,-0.2016,-0.2016,0,-0.1404,-0.1476,-0.1527,-0.1634,-0.1671,-0.1707,-0.1808,-0.1835,-0.1921,-0.1954,-0.1976,-0.204,-0.2013,-0.2022,-0.1995,-0.1932,-0.1869,-0.1818,-0.1974,-0.1961,-0.1726,-0.1728,-0.1645,-0.164,-0.1636,-0.1632,-0.1629,0,-0.1359,-0.1378,-0.1502,-0.1531,-0.1582,-0.1651,-0.169,-0.1802,-0.1822,-0.1911,-0.1903,-0.1925,-0.1943,-0.1789,-0.183,-0.1762,-0.1746,-0.1705,-0.1725,-0.1702,-0.1687,-0.1695,-0.1702,-0.1622,-0.1621,-0.162,-0.1619,0,-0.1269,-0.1328,-0.1371,-0.1436,-0.1491,-0.154,-0.1602,-0.1604,-0.171,-0.1809,-0.1767,-0.1746,-0.1709,-0.1685,-0.1642,-0.1602,-0.1731,-0.166,-0.1669,-0.1687,-0.1673,-0.1664,-0.1676,-0.1604,-0.1606,-0.1607,-0.1608,0,-0.12,-0.1214,-0.1278,-0.1319,-0.1386,-0.1395,-0.145,-0.1461,-0.1501,-0.1606,-0.1584,-0.1615,-0.1679,-0.1599,-0.1561,-0.1509,-0.149,-0.1447,-0.1467,-0.1484,-0.1456,-0.1417,-0.1231,0,0,0,0,0,-0.1123,-0.1121,-0.1151,-0.1189,-0.1247,-0.1282,-0.1371,-0.1426,-0.1531,-0.1454,-0.1513,-0.1473,-0.1421,-0.1446,-0.1354,-0.149,-0.1499,-0.1379,-0.1462,-0.1521,-0.1539,-0.1522,0,0,0,0,0,0,-0.1069,-0.1094,-0.1106,-0.1064,-0.106,-0.1108,-0.1158,-0.1234,-0.1199,-0.1311,-0.1284,-0.1374,-0.1341,-0.1433,-0.1316,-0.1323,-0.1343,-0.1413,-0.1409,-0.1512,-0.1527,-0.1541,-0.153,0,0,0,0,0]},{"header":{"parameterUnit":"m.s-1","parameterCategory":2,"la1":30.2991,"la2":30.254,"lo1":-89.0895,"lo2":-89.0444,"dy":0.0017,"dx":0.0017,"nx":28,"ny":28,"refTime":"2023-09-05T21:00:00:Z","depth":"4","parameterNumber":3,"parameterNumberName":"V-component_of_CURRENTS"},"data":[0,0,0,0,0,0,0,0,0,0,0,0,0,0,0,0,0,0,0,0,0,0,0,0,0,0,0,0,0,0,0,0,0,0,0,0,0,0,0,0,0,0,0,0,0,0,0,0,0,0,0,0,0,0,0,0,0,0,-0.0126,-0.0126,0,-0.008,-0.0079,-0.0078,-0.0045,-0.0045,-0.0045,-0.0045,0.0049,0.0051,0.0054,0,0,0,0,0,0,0,0,0,0,0,0,0,-0.0156,-0.0155,-0.0126,-0.0126,-0.0125,-0.008,-0.0079,-0.0078,-0.0045,-0.0045,-0.0045,-0.0045,0.0048,0.0051,0.0054,0,0,0,0,0,0,0,0,0,0,0,0,0,-0.0129,-0.0155,-0.0126,-0.0104,-0.0101,-0.008,-0.0079,-0.0078,-0.0045,-0.0045,-0.0045,-0.0045,0.0047,0.0051,0.0054,0.007,0,0,0.0065,0.0066,0,0,0,0,0,0,0,0,-0.013,-0.0127,-0.0108,-0.0105,-0.0103,-0.0069,-0.0055,-0.0026,-0.0045,-0.0066,-0.0045,-0.0044,0.0013,0.002,0.0028,0.0074,0.0078,0.0065,0.0067,0.0069,0.007,0,0,0,0,0,0,0,-0.0132,-0.0129,-0.0107,-0.0107,-0.0104,-0.0086,-0.0082,-0.0049,-0.0027,-0.0064,-0.0062,-0.0058,0.0015,0.0025,0.0031,0.008,0.0065,0.0068,0.007,0.0072,0.0153,0.0153,0,0,0,0,0,0,-0.0142,-0.0131,-0.0108,-0.0106,-0.0117,-0.0086,-0.0081,-0.0079,-0.0028,-0.0021,-0.0058,-0.0057,0.0019,0.0027,0.0034,0.0059,0.0069,0.0072,0.0074,0.0153,0.0153,0.0153,0,0,0,0,0,0,-0.0142,-0.014,-0.011,-0.0118,-0.0113,-0.0086,-0.0084,-0.0078,-0.007,-0.0025,-0.0016,-0.0055,0.0019,0.0029,0.006,0.0063,0.0073,0.0077,0.0153,0.0153,0.0153,0.0108,0,0,0,0,0,0,-0.0143,-0.0141,-0.0146,-0.0119,-0.0113,-0.0103,-0.0084,-0.0078,-0.0068,-0.0066,-0.0019,-0.001,0.002,0.0055,0.0064,0.0068,0.0079,0.0153,0.0153,0.0153,0.0109,0.0106,0.0104,0,0,0,0,0,-0.0145,-0.0155,-0.0147,-0.0144,-0.012,-0.0104,-0.0099,-0.0078,-0.0069,-0.0068,-0.0036,-0.0012,0.0062,0.0058,0.0068,0.0074,0.0153,0.0153,0.0153,0.011,0.0107,0.0104,0,0,0,0,0,0,-0.0174,-0.0152,-0.0142,-0.0146,-0.0129,-0.0099,-0.0099,-0.0082,-0.0057,-0.0054,-0.001,0.0001,0.0028,0.0057,0.0051,0.0098,0.0112,0.0114,0.0076,0.0073,0.007,0.0059,0.0082,0,0,0,0,0,-0.0183,-0.0184,-0.0158,-0.0163,-0.0156,-0.0128,-0.012,-0.0104,-0.0078,-0.0067,-0.0033,0.0004,0.0037,0.0058,0.0089,0.0116,0.0145,0.0127,0.0124,0.0122,0.012,0.0165,0.0166,0.0154,0.0154,0.0154,0,0,-0.0199,-0.0186,-0.0188,-0.0169,-0.0155,-0.0147,-0.0123,-0.0114,-0.0104,-0.0059,-0.0039,-0.0007,0.004,0.0068,0.0084,0.0094,0.0139,0.0122,0.012,0.012,0.0165,0.0166,0.0167,0.0154,0.0154,0.0154,0,0,-0.0225,-0.0217,-0.0222,-0.0208,-0.0188,-0.0169,-0.0168,-0.0138,-0.0122,-0.0098,-0.0064,-0.0031,0.0018,0.0054,0.0079,0.0082,0.0119,0.0091,0.0076,0.0119,0.012,0.0121,0.0152,0.0156,0.0095,0.0095,0.0095,0,-0.0246,-0.0245,-0.0222,-0.022,-0.0214,-0.0181,-0.0182,-0.016,-0.0124,-0.011,-0.0098,-0.0026,0.0013,0.0056,0.0057,0.0076,0.0101,0.0082,0.0115,0.0117,0.0119,0.015,0.0156,0.0093,0.0093,0.0093,0.0093,0,-0.0267,-0.0267,-0.0271,-0.0255,-0.0245,-0.0244,-0.021,-0.0197,-0.0174,-0.0146,-0.0108,-0.0056,-0.0011,0.0008,0.0035,0.0071,0.0083,0.0101,0.012,0.0118,0.015,0.0157,0.009,0.009,0.0091,0.0092,0,0,-0.0314,-0.0291,-0.0294,-0.0293,-0.0265,-0.0261,-0.0244,-0.0218,-0.0209,-0.0166,-0.0146,-0.0083,-0.0056,-0.0026,0.0015,0.0057,0.0094,0.0082,0.0085,0.0107,0.018,0.0168,0.0174,0.0117,0.0118,0.0119,0.0194,0,-0.034,-0.0347,-0.0324,-0.0334,-0.0335,-0.0301,-0.0291,-0.0262,-0.0229,-0.0203,-0.0139,-0.0107,-0.0067,-0.0049,-0.0,0.0071,0.0111,0.0072,0.0184,0.0188,0.0173,0.0181,0.0122,0.0199,0.02,0.0201,0.0202,0,-0.0365,-0.0368,-0.038,-0.0372,-0.037,-0.037,-0.0352,-0.0336,-0.0284,-0.0258,-0.0208,-0.016,-0.0091,-0.0063,0.0062,0.0034,0.01,0.0155,0.016,0.0169,0.0188,0.0205,0.0215,0.0214,0.0213,0.0212,0.0211,0,-0.0406,-0.0407,-0.042,-0.0417,-0.0401,-0.0403,-0.0397,-0.0358,-0.0349,-0.0295,-0.0279,-0.0191,-0.0146,-0.005,0.007,0.0066,0.0203,0.0215,0.0265,0.0265,0.0273,0.0271,0.0296,0.0296,0.0296,0.0296,0.0295,0,-0.0432,-0.0447,-0.0445,-0.0452,-0.0479,-0.0451,-0.0464,-0.0441,-0.0409,-0.0395,-0.0315,-0.0278,-0.014,-0.0043,0.0059,0.0184,0.0199,0.0263,0.0286,0.0251,0.0246,0.0278,0.0275,0.0298,0.0298,0.0297,0.0297,0,-0.0461,-0.0458,-0.048,-0.0486,-0.0495,-0.0515,-0.0521,-0.0524,-0.0485,-0.0464,-0.0449,-0.0339,-0.0208,-0.007,0.0095,0.0166,0.0287,0.0327,0.0273,0.0292,0.0321,0.0315,0.0384,0.0385,0.0385,0.0385,0.0385,0,-0.047,-0.0484,-0.0517,-0.0543,-0.0549,-0.0576,-0.0593,-0.057,-0.0565,-0.0494,-0.0481,-0.0361,-0.0272,-0.0044,0.0094,0.0283,0.0308,0.0359,0.0344,0.0316,0.0332,0.0325,0.0318,0.0385,0.0385,0.0386,0.0386,0,-0.0493,-0.0507,-0.0527,-0.0586,-0.0619,-0.065,-0.0667,-0.0667,-0.0624,-0.0595,-0.0491,-0.0366,-0.022,-0.0045,0.0102,0.0237,0.0319,0.0361,0.0362,0.0349,0.0318,0.0332,0.0325,0.0386,0.0386,0.0386,0.0386,0,-0.0513,-0.0539,-0.0573,-0.0619,-0.067,-0.0699,-0.0705,-0.0677,-0.0661,-0.057,-0.0537,-0.0367,-0.0266,-0.0068,0.0068,0.0198,0.0225,0.0255,0.0262,0.0262,0.0203,0.0144,0.0181,0,0,0,0,0,-0.0526,-0.0555,-0.0604,-0.0651,-0.0701,-0.0724,-0.074,-0.073,-0.0689,-0.0619,-0.0572,-0.0428,-0.0208,-0.011,0.0019,0.0054,0.023,0.0205,0.0263,0.039,0.0389,0.0339,0,0,0,0,0,0,-0.0538,-0.0581,-0.0603,-0.0664,-0.07,-0.0747,-0.0755,-0.0728,-0.0676,-0.0616,-0.0492,-0.0415,-0.0198,-0.0278,0.0017,0.0056,0.0105,0.0314,0.0316,0.0391,0.039,0.0389,0.0337,0,0,0,0,0]}]]